Terminal Aerodrome Forecast
Issued by NWS

Home | Current Version | Previous Version | Text Only | Print | Product List | Glossary On
Versions: 1 2 3 4 5 6 7 8 9 10 11 12 13 14 15
000
FTUS44 KLZK 311127
TAFHRO
TAF
KHRO 311127Z 3112/0112 14003KT P6SM SCT100 SCT250
      TEMPO 3112/3114 5SM BR
     FM311500 16007KT P6SM SCT050 SCT250
     FM010100 15004KT P6SM SCT250
      AMD NOT SKED=

USA.gov is the U.S. government's official web portal to all federal, state and local government web resources and services.